カタログに戻る

YAOGAN-35 03B

運用中軍事VLEO
NORAD 53318·PAYLOAD·🇨🇳 China

打ち上げ Jul 29, 2022 から Xichang Satellite Launch Center

Loading…

次のパス (今後24時間)

TLE

最新Source: Space-Track

元期: Sep 14, 2026, 15:39 UTC

1 53318U 22088C   26257.65241728  .00007197  00000-0  27455-3 0  9997
2 53318  34.9893   3.9657 0011463 106.1729 254.0249 15.25904534230019

AllMySatでYAOGAN-35 03Bをリアルタイム追跡

Download on the App Store